����������;��������(kWh)
2016-09-19 00:00;91
2016-09-19 00:15;95,2
2016-09-19 00:30;94,7
2016-09-19 00:45;94,4
2016-09-19 01:00;93,6
2016-09-19 01:15;87,25
2016-09-19 01:30;84,9
2016-09-19 01:45;87,35
2016-09-19 02:00;88,1
2016-09-19 02:15;87
2016-09-19 02:30;85,2
2016-09-19 02:45;90,8
2016-09-19 03:00;84,65
2016-09-19 03:15;83,2
2016-09-19 03:30;89,3
2016-09-19 03:45;85,95
2016-09-19 04:00;83,35
2016-09-19 04:15;86,45
2016-09-19 04:30;86,9
2016-09-19 04:45;82,8
2016-09-19 05:00;85,85
2016-09-19 05:15;89,45
2016-09-19 05:30;87,6
2016-09-19 05:45;87,8
2016-09-19 06:00;90,5
2016-09-19 06:15;95,65
2016-09-19 06:30;93,6
2016-09-19 06:45;92,45
2016-09-19 07:00;96,6
2016-09-19 07:15;97,6
2016-09-19 07:30;90,6
2016-09-19 07:45;97,8
2016-09-19 08:00;108,1
2016-09-19 08:15;110,35
2016-09-19 08:30;119,15
2016-09-19 08:45;134,05
2016-09-19 09:00;155,35
2016-09-19 09:15;176,6
2016-09-19 09:30;197,2
2016-09-19 09:45;204,35
2016-09-19 10:00;202,35
2016-09-19 10:15;207,1
2016-09-19 10:30;265,9
2016-09-19 10:45;281,4
2016-09-19 11:00;287,45
2016-09-19 11:15;292,5
2016-09-19 11:30;274,95
2016-09-19 11:45;265
2016-09-19 12:00;279,45
2016-09-19 12:15;272,1
2016-09-19 12:30;268,25
2016-09-19 12:45;259,7
2016-09-19 13:00;266,65
2016-09-19 13:15;264,05
2016-09-19 13:30;267,5
2016-09-19 13:45;267,1
2016-09-19 14:00;262,7
2016-09-19 14:15;270,3
2016-09-19 14:30;261,6
2016-09-19 14:45;253,5
2016-09-19 15:00;286,2
2016-09-19 15:15;305,55
2016-09-19 15:30;300,7
2016-09-19 15:45;283,45
2016-09-19 16:00;254,9
2016-09-19 16:15;247,15
2016-09-19 16:30;228,9
2016-09-19 16:45;207,55
2016-09-19 17:00;201,55
2016-09-19 17:15;195,35
2016-09-19 17:30;189,1
2016-09-19 17:45;188,15
2016-09-19 18:00;182,65
2016-09-19 18:15;185,5
2016-09-19 18:30;180,45
2016-09-19 18:45;177,85
2016-09-19 19:00;166,9
2016-09-19 19:15;160,4
2016-09-19 19:30;151,6
2016-09-19 19:45;149,35
2016-09-19 20:00;149,9
2016-09-19 20:15;148,45
2016-09-19 20:30;138,3
2016-09-19 20:45;135,4
2016-09-19 21:00;137,4
2016-09-19 21:15;132,6
2016-09-19 21:30;136,7
2016-09-19 21:45;132,45
2016-09-19 22:00;123,15
2016-09-19 22:15;116,65
2016-09-19 22:30;115,95
2016-09-19 22:45;116,25
2016-09-19 23:00;118,75
2016-09-19 23:15;120
2016-09-19 23:30;109,8
2016-09-19 23:45;106,3
2016-09-20 00:00;105,7
2016-09-20 00:15;107,05
2016-09-20 00:30;104,95
2016-09-20 00:45;103,45
2016-09-20 01:00;104,5
2016-09-20 01:15;101,65
2016-09-20 01:30;102,3
2016-09-20 01:45;100,35
2016-09-20 02:00;99,65
2016-09-20 02:15;99,35
2016-09-20 02:30;95,55
2016-09-20 02:45;89,55
2016-09-20 03:00;88,7
2016-09-20 03:15;89,25
2016-09-20 03:30;90,45
2016-09-20 03:45;88,15
2016-09-20 04:00;89,2
2016-09-20 04:15;88,65
2016-09-20 04:30;89,25
2016-09-20 04:45;89,85
2016-09-20 05:00;89,35
2016-09-20 05:15;90,85
2016-09-20 05:30;93,15
2016-09-20 05:45;96,65
2016-09-20 06:00;97,1
2016-09-20 06:15;102,35
2016-09-20 06:30;101,5
2016-09-20 06:45;100,5
2016-09-20 07:00;100,55
2016-09-20 07:15;107,75
2016-09-20 07:30;107,2
2016-09-20 07:45;159,4
2016-09-20 08:00;130
2016-09-20 08:15;138,3
2016-09-20 08:30;139,5
2016-09-20 08:45;148,35
2016-09-20 09:00;79,65
2016-09-20 09:15;85,1
2016-09-20 09:30;148,7
2016-09-20 09:45;167,25
2016-09-20 10:00;176,8
2016-09-20 10:15;180,55
2016-09-20 10:30;179,95
2016-09-20 10:45;234,4
2016-09-20 11:00;243,9
2016-09-20 11:15;242,9
2016-09-20 11:30;238,5
2016-09-20 11:45;235,6
2016-09-20 12:00;234,7
2016-09-20 12:15;246,65
2016-09-20 12:30;297,4
2016-09-20 12:45;278,25
2016-09-20 13:00;257,05
2016-09-20 13:15;247,7
2016-09-20 13:30;235
2016-09-20 13:45;238,65
2016-09-20 14:00;242,45
2016-09-20 14:15;238,95
2016-09-20 14:30;240,9
2016-09-20 14:45;236,95
2016-09-20 15:00;230,6
2016-09-20 15:15;226
2016-09-20 15:30;220,1
2016-09-20 15:45;214,35
2016-09-20 16:00;200,6
2016-09-20 16:15;204,4
2016-09-20 16:30;202,15
2016-09-20 16:45;191,05
2016-09-20 17:00;184,25
2016-09-20 17:15;175,45
2016-09-20 17:30;170,65
2016-09-20 17:45;162,8
2016-09-20 18:00;157,8
2016-09-20 18:15;158
2016-09-20 18:30;154,9
2016-09-20 18:45;158,95
2016-09-20 19:00;158,8
2016-09-20 19:15;150,9
2016-09-20 19:30;149
2016-09-20 19:45;141,9
2016-09-20 20:00;140
2016-09-20 20:15;129,65
2016-09-20 20:30;127,65
2016-09-20 20:45;129,4
2016-09-20 21:00;124,25
2016-09-20 21:15;123,15
2016-09-20 21:30;120,75
2016-09-20 21:45;115,85
2016-09-20 22:00;112,15
2016-09-20 22:15;111,85
2016-09-20 22:30;119,55
2016-09-20 22:45;115,55
2016-09-20 23:00;114,3
2016-09-20 23:15;110,35
2016-09-20 23:30;100,85
2016-09-20 23:45;99,75
2016-09-21 00:00;97,1
2016-09-21 00:15;97,65
2016-09-21 00:30;95,6
2016-09-21 00:45;95,35
2016-09-21 01:00;94,75
2016-09-21 01:15;90,25
2016-09-21 01:30;90,6
2016-09-21 01:45;91,3
2016-09-21 02:00;87,4
2016-09-21 02:15;88,9
2016-09-21 02:30;88,1
2016-09-21 02:45;87,9
2016-09-21 03:00;90,1
2016-09-21 03:15;87,8
2016-09-21 03:30;87,15
2016-09-21 03:45;89,4
2016-09-21 04:00;88,1
2016-09-21 04:15;86,55
2016-09-21 04:30;87,5
2016-09-21 04:45;87
2016-09-21 05:00;87,45
2016-09-21 05:15;89,85
2016-09-21 05:30;88,35
2016-09-21 05:45;92,15
2016-09-21 06:00;98,7
2016-09-21 06:15;98,6
2016-09-21 06:30;103,6
2016-09-21 06:45;102,5
2016-09-21 07:00;106,3
2016-09-21 07:15;112,95
2016-09-21 07:30;102,25
2016-09-21 07:45;107,65
2016-09-21 08:00;114,95
2016-09-21 08:15;120,05
2016-09-21 08:30;126,35
2016-09-21 08:45;129,7
2016-09-21 09:00;138,8
2016-09-21 09:15;147,75
2016-09-21 09:30;149,75
2016-09-21 09:45;168,75
2016-09-21 10:00;194,7
2016-09-21 10:15;223,5
2016-09-21 10:30;233
2016-09-21 10:45;224,95
2016-09-21 11:00;208,1
2016-09-21 11:15;199,4
2016-09-21 11:30;213,85
2016-09-21 11:45;202,7
2016-09-21 12:00;206,65
2016-09-21 12:15;214,45
2016-09-21 12:30;241,45
2016-09-21 12:45;277,45
2016-09-21 13:00;256,05
2016-09-21 13:15;219,7
2016-09-21 13:30;232,05
2016-09-21 13:45;211,3
2016-09-21 14:00;213,65
2016-09-21 14:15;44,15
2016-09-21 14:30;0
2016-09-21 14:45;0
2016-09-21 15:00;0
2016-09-21 15:15;0
2016-09-21 15:30;0
2016-09-21 15:45;229,25
2016-09-21 16:00;247,25
2016-09-21 16:15;212,4
2016-09-21 16:30;205,45
2016-09-21 16:45;199,9
2016-09-21 17:00;199,9
2016-09-21 17:15;193,05
2016-09-21 17:30;189,15
2016-09-21 17:45;177,1
2016-09-21 18:00;169,45
2016-09-21 18:15;157,65
2016-09-21 18:30;157,5
2016-09-21 18:45;155,25
2016-09-21 19:00;150,55
2016-09-21 19:15;140,75
2016-09-21 19:30;131,65
2016-09-21 19:45;132,25
2016-09-21 20:00;127,05
2016-09-21 20:15;127
2016-09-21 20:30;118,1
2016-09-21 20:45;120,45
2016-09-21 21:00;116,25
2016-09-21 21:15;110,2
2016-09-21 21:30;110,7
2016-09-21 21:45;109,3
2016-09-21 22:00;105,8
2016-09-21 22:15;108,85
2016-09-21 22:30;98,55
2016-09-21 22:45;100,95
2016-09-21 23:00;97,8
2016-09-21 23:15;96,55
2016-09-21 23:30;96,4
2016-09-21 23:45;93,9
2016-09-22 00:00;94,4
2016-09-22 00:15;93,65
2016-09-22 00:30;90,5
2016-09-22 00:45;91,7
2016-09-22 01:00;89,35
2016-09-22 01:15;87,1
2016-09-22 01:30;88,4
2016-09-22 01:45;84,75
2016-09-22 02:00;86,45
2016-09-22 02:15;83,9
2016-09-22 02:30;86,15
2016-09-22 02:45;85,95
2016-09-22 03:00;84,3
2016-09-22 03:15;84,65
2016-09-22 03:30;86,8
2016-09-22 03:45;84,6
2016-09-22 04:00;84,75
2016-09-22 04:15;84,9
2016-09-22 04:30;83,7
2016-09-22 04:45;84
2016-09-22 05:00;85,1
2016-09-22 05:15;86,2
2016-09-22 05:30;90,2
2016-09-22 05:45;92,45
2016-09-22 06:00;99,85
2016-09-22 06:15;103,2
2016-09-22 06:30;100,5
2016-09-22 06:45;96,3
2016-09-22 07:00;99,15
2016-09-22 07:15;103,65
2016-09-22 07:30;103,1
2016-09-22 07:45;154,95
2016-09-22 08:00;124,95
2016-09-22 08:15;126,1
2016-09-22 08:30;129,85
2016-09-22 08:45;169,9
2016-09-22 09:00;181,2
2016-09-22 09:15;148,55
2016-09-22 09:30;171,25
2016-09-22 09:45;180,2
2016-09-22 10:00;186,45
2016-09-22 10:15;181,25
2016-09-22 10:30;176,15
2016-09-22 10:45;179,5
2016-09-22 11:00;177,5
2016-09-22 11:15;192,6
2016-09-22 11:30;209,25
2016-09-22 11:45;197,95
2016-09-22 12:00;183,45
2016-09-22 12:15;216,05
2016-09-22 12:30;257,8
2016-09-22 12:45;242,55
2016-09-22 13:00;219,9
2016-09-22 13:15;234,45
2016-09-22 13:30;234,8
2016-09-22 13:45;233,45
2016-09-22 14:00;222,8
2016-09-22 14:15;212,25
2016-09-22 14:30;207,85
2016-09-22 14:45;211,8
2016-09-22 15:00;204,1
2016-09-22 15:15;202,1
2016-09-22 15:30;198,65
2016-09-22 15:45;192,85
2016-09-22 16:00;182,05
2016-09-22 16:15;165,9
2016-09-22 16:30;174,3
2016-09-22 16:45;174,55
2016-09-22 17:00;173,65
2016-09-22 17:15;171,95
2016-09-22 17:30;172,05
2016-09-22 17:45;159
2016-09-22 18:00;151,3
2016-09-22 18:15;144,6
2016-09-22 18:30;139
2016-09-22 18:45;139,2
2016-09-22 19:00;134,05
2016-09-22 19:15;122,3
2016-09-22 19:30;124,1
2016-09-22 19:45;127,85
2016-09-22 20:00;122,75
2016-09-22 20:15;118,75
2016-09-22 20:30;118,55
2016-09-22 20:45;114,95
2016-09-22 21:00;116,65
2016-09-22 21:15;112,75
2016-09-22 21:30;107,8
2016-09-22 21:45;108,6
2016-09-22 22:00;105,45
2016-09-22 22:15;104,55
2016-09-22 22:30;106,85
2016-09-22 22:45;107,3
2016-09-22 23:00;102,1
2016-09-22 23:15;98,55
2016-09-22 23:30;95,75
2016-09-22 23:45;93,85
2016-09-23 00:00;93,7
2016-09-23 00:15;91,2
2016-09-23 00:30;90,75
2016-09-23 00:45;88,6
2016-09-23 01:00;84,85
2016-09-23 01:15;83,6
2016-09-23 01:30;82,15
2016-09-23 01:45;81,95
2016-09-23 02:00;82,1
2016-09-23 02:15;81,45
2016-09-23 02:30;80,5
2016-09-23 02:45;79,95
2016-09-23 03:00;82,6
2016-09-23 03:15;81
2016-09-23 03:30;81,3
2016-09-23 03:45;80,75
2016-09-23 04:00;79,6
2016-09-23 04:15;80,1
2016-09-23 04:30;82,85
2016-09-23 04:45;80,25
2016-09-23 05:00;80,9
2016-09-23 05:15;82,4
2016-09-23 05:30;81,55
2016-09-23 05:45;80,35
2016-09-23 06:00;90,4
2016-09-23 06:15;89,65
2016-09-23 06:30;92,5
2016-09-23 06:45;92,3
2016-09-23 07:00;92,25
2016-09-23 07:15;99,15
2016-09-23 07:30;100,4
2016-09-23 07:45;108,05
2016-09-23 08:00;112,75
2016-09-23 08:15;126,45
2016-09-23 08:30;132,45
2016-09-23 08:45;143,7
2016-09-23 09:00;141
2016-09-23 09:15;140,7
2016-09-23 09:30;134,7
2016-09-23 09:45;143
2016-09-23 10:00;149,3
2016-09-23 10:15;150,6
2016-09-23 10:30;151,6
2016-09-23 10:45;158,35
2016-09-23 11:00;159,45
2016-09-23 11:15;165,3
2016-09-23 11:30;169,45
2016-09-23 11:45;167,3
2016-09-23 12:00;170,25
2016-09-23 12:15;169,45
2016-09-23 12:30;163,4
2016-09-23 12:45;161,8
2016-09-23 13:00;167,25
2016-09-23 13:15;163,15
2016-09-23 13:30;170,5
2016-09-23 13:45;177
2016-09-23 14:00;170,25
2016-09-23 14:15;167,5
2016-09-23 14:30;174,6
2016-09-23 14:45;167,65
2016-09-23 15:00;163,6
2016-09-23 15:15;160,7
2016-09-23 15:30;154,95
2016-09-23 15:45;152,3
2016-09-23 16:00;144,95
2016-09-23 16:15;137,65
2016-09-23 16:30;139,45
2016-09-23 16:45;136,95
2016-09-23 17:00;136,95
2016-09-23 17:15;128,15
2016-09-23 17:30;135,7
2016-09-23 17:45;130,5
2016-09-23 18:00;127,45
2016-09-23 18:15;119,3
2016-09-23 18:30;114,75
2016-09-23 18:45;117,4
2016-09-23 19:00;114,6
2016-09-23 19:15;114,1
2016-09-23 19:30;109,4
2016-09-23 19:45;110,05
2016-09-23 20:00;110,8
2016-09-23 20:15;108,55
2016-09-23 20:30;110,6
2016-09-23 20:45;113,25
2016-09-23 21:00;108,7
2016-09-23 21:15;101,3
2016-09-23 21:30;99,85
2016-09-23 21:45;102,65
2016-09-23 22:00;101,35
2016-09-23 22:15;101,65
2016-09-23 22:30;100,85
2016-09-23 22:45;99,65
2016-09-23 23:00;98,5
2016-09-23 23:15;93
2016-09-23 23:30;87,4
2016-09-23 23:45;87,25
2016-09-24 00:00;89,35
2016-09-24 00:15;91,55
2016-09-24 00:30;86,45
2016-09-24 00:45;85,1
2016-09-24 01:00;84,85
2016-09-24 01:15;82,05
2016-09-24 01:30;81,55
2016-09-24 01:45;79,35
2016-09-24 02:00;81,6
2016-09-24 02:15;79,2
2016-09-24 02:30;78,75
2016-09-24 02:45;80,05
2016-09-24 03:00;79,15
2016-09-24 03:15;79,2
2016-09-24 03:30;80,4
2016-09-24 03:45;77,6
2016-09-24 04:00;77,4
2016-09-24 04:15;78,65
2016-09-24 04:30;80,2
2016-09-24 04:45;78,6
2016-09-24 05:00;78,1
2016-09-24 05:15;78,55
2016-09-24 05:30;78,6
2016-09-24 05:45;80,6
2016-09-24 06:00;82,5
2016-09-24 06:15;80,55
2016-09-24 06:30;81,55
2016-09-24 06:45;81,75
2016-09-24 07:00;86,8
2016-09-24 07:15;82,6
2016-09-24 07:30;81,65
2016-09-24 07:45;79,8
2016-09-24 08:00;76,1
2016-09-24 08:15;75,8
2016-09-24 08:30;76,2
2016-09-24 08:45;75,3
2016-09-24 09:00;78,35
2016-09-24 09:15;75,45
2016-09-24 09:30;79,3
2016-09-24 09:45;79,35
2016-09-24 10:00;78,05
2016-09-24 10:15;76,2
2016-09-24 10:30;76,35
2016-09-24 10:45;76,85
2016-09-24 11:00;79,8
2016-09-24 11:15;81,35
2016-09-24 11:30;86,6
2016-09-24 11:45;90,5
2016-09-24 12:00;92,25
2016-09-24 12:15;94,9
2016-09-24 12:30;86,2
2016-09-24 12:45;80,4
2016-09-24 13:00;82,15
2016-09-24 13:15;79,35
2016-09-24 13:30;84,9
2016-09-24 13:45;88,9
2016-09-24 14:00;87,7
2016-09-24 14:15;83,35
2016-09-24 14:30;88,75
2016-09-24 14:45;89,65
2016-09-24 15:00;87,8
2016-09-24 15:15;84,95
2016-09-24 15:30;85,5
2016-09-24 15:45;85,65
2016-09-24 16:00;89,25
2016-09-24 16:15;89,95
2016-09-24 16:30;88,4
2016-09-24 16:45;91,2
2016-09-24 17:00;91,25
2016-09-24 17:15;87,15
2016-09-24 17:30;86,35
2016-09-24 17:45;82,55
2016-09-24 18:00;82,65
2016-09-24 18:15;86,4
2016-09-24 18:30;91,45
2016-09-24 18:45;95,15
2016-09-24 19:00;89
2016-09-24 19:15;90
2016-09-24 19:30;86,8
2016-09-24 19:45;92,35
2016-09-24 20:00;93,7
2016-09-24 20:15;92,15
2016-09-24 20:30;92,05
2016-09-24 20:45;91,8
2016-09-24 21:00;88,8
2016-09-24 21:15;90,65
2016-09-24 21:30;89,4
2016-09-24 21:45;90,7
2016-09-24 22:00;86,4
2016-09-24 22:15;87,15
2016-09-24 22:30;86,5
2016-09-24 22:45;85,35
2016-09-24 23:00;83,75
2016-09-24 23:15;84,85
2016-09-24 23:30;81,45
2016-09-24 23:45;81,05
2016-09-25 00:00;81,55
2016-09-25 00:15;80,65
2016-09-25 00:30;84,4
2016-09-25 00:45;84,8
2016-09-25 01:00;85,95
2016-09-25 01:15;84,25
2016-09-25 01:30;77,3
2016-09-25 01:45;78,85
2016-09-25 02:00;77,5
2016-09-25 02:15;76,95
2016-09-25 02:30;77,6
2016-09-25 02:45;77,65
2016-09-25 03:00;76,55
2016-09-25 03:15;78,3
2016-09-25 03:30;76,4
2016-09-25 03:45;75,9
2016-09-25 04:00;77
2016-09-25 04:15;76,1
2016-09-25 04:30;76,75
2016-09-25 04:45;77,3
2016-09-25 05:00;76,2
2016-09-25 05:15;75,95
2016-09-25 05:30;75,9
2016-09-25 05:45;75,5
2016-09-25 06:00;81
2016-09-25 06:15;78,95
2016-09-25 06:30;85,45
2016-09-25 06:45;85,7
2016-09-25 07:00;83,8
2016-09-25 07:15;83,5
2016-09-25 07:30;83,55
2016-09-25 07:45;82,4
2016-09-25 08:00;76,45
2016-09-25 08:15;76,2
2016-09-25 08:30;78,85
2016-09-25 08:45;78,1
2016-09-25 09:00;75
2016-09-25 09:15;75,95
2016-09-25 09:30;76,5
2016-09-25 09:45;76,2
2016-09-25 10:00;74,9
2016-09-25 10:15;77,6
2016-09-25 10:30;74,1
2016-09-25 10:45;78,45
2016-09-25 11:00;78,85
2016-09-25 11:15;80,7
2016-09-25 11:30;79,45
2016-09-25 11:45;83,9
2016-09-25 12:00;86,55
2016-09-25 12:15;88,95
2016-09-25 12:30;83,75
2016-09-25 12:45;78,45
2016-09-25 13:00;80,9
2016-09-25 13:15;79,2
2016-09-25 13:30;78,95
2016-09-25 13:45;78,2
2016-09-25 14:00;77,5
2016-09-25 14:15;77,8
2016-09-25 14:30;81,6
2016-09-25 14:45;81,85
2016-09-25 15:00;80,25
2016-09-25 15:15;78,45
2016-09-25 15:30;79,05
2016-09-25 15:45;83,2
2016-09-25 16:00;80,6
2016-09-25 16:15;81,15
2016-09-25 16:30;81,15
2016-09-25 16:45;86,75
2016-09-25 17:00;85,45
2016-09-25 17:15;82,4
2016-09-25 17:30;83,1
2016-09-25 17:45;82,2
2016-09-25 18:00;84,5
2016-09-25 18:15;83,55
2016-09-25 18:30;87,65
2016-09-25 18:45;86,95
2016-09-25 19:00;91,55
2016-09-25 19:15;85,7
2016-09-25 19:30;87,6
2016-09-25 19:45;88,75
2016-09-25 20:00;88,75
2016-09-25 20:15;89,25
2016-09-25 20:30;86,05
2016-09-25 20:45;89,8
2016-09-25 21:00;90,95
2016-09-25 21:15;85,95
2016-09-25 21:30;88,45
2016-09-25 21:45;92,35
2016-09-25 22:00;84,2
2016-09-25 22:15;84,85
2016-09-25 22:30;90,4
2016-09-25 22:45;90,4
2016-09-25 23:00;89,2
2016-09-25 23:15;89
2016-09-25 23:30;82,25
2016-09-25 23:45;80,75

